Location: Poughquag
(41.6090°N, 73.6820°W)
Time: 02:37:17
(UTC-05:00)

FO-29 - Visible Passes

Search period start: 09 December 2023 00:00
Search period end: 19 December 2023 00:00
Orbit: 800 x 1321 km, 98.6° (Epoch: 08 December)

Date Brightness Start Highest point End Pass type
(mag) Time Alt. Az. Time Alt. Az. Time Alt. Az.
09 Dec 11.9 04:04:33 10° N 04:05:36 14° N 04:05:36 14° N visible
10 Dec 12.2 03:09:00 10° N 03:09:44 13° N 03:09:44 13° N visible
10 Dec 11.9 04:55:48 10° NNW 04:56:13 11° NNW 04:56:13 11° NNW visible
11 Dec 12.0 03:59:23 10° N 04:00:21 14° N 04:00:21 14° N visible
12 Dec 12.2 03:03:54 10° NNE 03:04:30 13° NNE 03:04:30 13° NNE visible
12 Dec 12.0 04:50:32 10° NNW 04:50:58 11° NNW 04:50:58 11° NNW visible
13 Dec 12.0 03:54:15 10° N 03:55:07 14° N 03:55:07 14° N visible
14 Dec 12.3 02:58:49 10° NNE 02:59:16 12° NNE 02:59:16 12° NNE visible
14 Dec 12.0 04:45:18 10° NNW 04:45:44 11° NNW 04:45:44 11° NNW visible
15 Dec 12.1 03:49:07 10° N 03:49:53 13° N 03:49:53 13° N visible
16 Dec 12.4 02:53:45 10° NNE 02:54:03 11° NNE 02:54:03 11° NNE visible
16 Dec 12.0 04:40:06 10° NNW 04:40:31 11° NNW 04:40:31 11° NNW visible
17 Dec 12.1 03:44:00 10° N 03:44:40 13° N 03:44:40 13° N visible
18 Dec 12.4 02:48:41 10° NNE 02:48:50 11° NNE 02:48:50 11° NNE visible
18 Dec 12.0 04:34:54 10° N 04:35:18 11° NNW 04:35:18 11° NNW visible
